48.9°F
Current conditions from King Hill
Updated every 5 minutes
 
  Saturday October 25, 2014

Station Historical Data
Daily Summary for February 11, 2011 Units:  English    Metric   Both
« Previous Day
Next Day »
Daily Weekly Monthly Yearly Custom
  High: Low: Average:
Temperature: 21.3 °F 5.4 °F 13.8 °F
Dew Point: 6.7 °F -2.3 °F 3 °F
Humidity: 71% 50% 62%
Wind Speed: 9.0mph 1.0mph 4.2mph
Wind Gust: 16.0mph - -
Wind- - SSW
Pressure: 30.05 in 29.91 in -
Precipitation: 0.00 in    
Historical Graphs
 
 
Tabular Data for February 11, 2011
Time Temperature Dew Point Pressure Wind Wind Speed Wind Gust Humidity Daily Rainfall
00:00 14.4 °F 4.1 °F 29.98 in WSW 4.0 mph 8.0 mph 63% 0.00 in
00:05 14.2 °F 4.3 °F 29.98 in SSW 4.0 mph 8.0 mph 64% 0.00 in
00:10 13.6 °F 4.3 °F 29.98 in SSW 4.0 mph 9.0 mph 66% 0.00 in
00:15 13.3 °F 4.1 °F 29.98 in SSW 5.0 mph 9.0 mph 66% 0.00 in
00:20 13.2 °F 4.0 °F 29.98 in SSW 3.0 mph 11.0 mph 66% 0.00 in
00:25 13.1 °F 4.2 °F 29.98 in SSW 5.0 mph 11.0 mph 67% 0.00 in
00:30 13.0 °F 3.8 °F 29.98 in SSW 6.0 mph 12.0 mph 66% 0.00 in
00:35 13.0 °F 3.8 °F 29.98 in SW 6.0 mph 12.0 mph 66% 0.00 in
00:40 12.9 °F 4.0 °F 29.97 in SSW 3.0 mph 9.0 mph 67% 0.00 in
00:45 12.8 °F 3.9 °F 29.98 in SSW 4.0 mph 7.0 mph 67% 0.00 in
00:50 12.8 °F 3.9 °F 29.98 in SW 2.0 mph 7.0 mph 67% 0.00 in
00:55 12.8 °F 3.6 °F 29.98 in SSW 2.0 mph 7.0 mph 66% 0.00 in
01:05 12.8 °F 3.6 °F 29.98 in SW 3.0 mph 7.0 mph 66% 0.00 in
01:10 12.8 °F 3.3 °F 29.98 in SW 4.0 mph 9.0 mph 65% 0.00 in
01:15 12.9 °F 3.3 °F 29.98 in SW 5.0 mph 10.0 mph 65% 0.00 in
01:20 12.8 °F 3.3 °F 29.98 in SW 3.0 mph 10.0 mph 65% 0.00 in
01:25 12.7 °F 3.5 °F 29.98 in SW 2.0 mph 9.0 mph 66% 0.00 in
01:30 12.7 °F 3.2 °F 29.98 in SW 4.0 mph 9.0 mph 65% 0.00 in
01:35 12.6 °F 3.4 °F 29.98 in SSW 2.0 mph 9.0 mph 66% 0.00 in
01:40 12.5 °F 3.3 °F 29.98 in SSW 1.0 mph 7.0 mph 66% 0.00 in
01:45 12.3 °F 3.4 °F 29.98 in South 2.0 mph 6.0 mph 67% 0.00 in
01:50 12.3 °F 3.4 °F 29.98 in SW 1.0 mph 7.0 mph 67% 0.00 in
01:55 12.2 °F 3.3 °F 29.98 in SSW 3.0 mph 7.0 mph 67% 0.00 in
02:00 12.1 °F 3.6 °F 29.98 in SW 3.0 mph 7.0 mph 68% 0.00 in
02:05 12.0 °F 3.1 °F 29.98 in SSW 3.0 mph 7.0 mph 67% 0.00 in
02:10 11.9 °F 3.0 °F 29.98 in SSW 2.0 mph 6.0 mph 67% 0.00 in
02:15 11.9 °F 3.0 °F 29.98 in SSW 2.0 mph 5.0 mph 67% 0.00 in
02:19 11.8 °F 2.6 °F 29.98 in Calm   6.0 mph 66% 0.00 in
02:25 11.7 °F 2.5 °F 29.98 in SSW 4.0 mph 7.0 mph 66% 0.00 in
02:30 11.7 °F 2.2 °F 29.98 in SSW 4.0 mph 8.0 mph 65% 0.00 in
02:35 11.6 °F 2.4 °F 29.98 in SSW 3.0 mph 8.0 mph 66% 0.00 in
02:40 11.6 °F 2.4 °F 29.98 in SSW 3.0 mph 11.0 mph 66% 0.00 in
02:45 11.5 °F 2.3 °F 29.98 in SSW 3.0 mph 11.0 mph 66% 0.00 in
02:50 11.4 °F 2.2 °F 29.98 in SSW 2.0 mph 8.0 mph 66% 0.00 in
02:55 11.4 °F 2.2 °F 29.98 in SSW 5.0 mph 10.0 mph 66% 0.00 in
03:00 11.3 °F 2.1 °F 29.98 in SSW 2.0 mph 10.0 mph 66% 0.00 in
03:05 11.2 °F 1.7 °F 29.97 in SSW 5.0 mph 9.0 mph 65% 0.00 in
03:09 11.1 °F 1.6 °F 29.98 in SW 5.0 mph 10.0 mph 65% 0.00 in
03:15 11.0 °F 1.5 °F 29.98 in SW 5.0 mph 11.0 mph 65% 0.00 in
03:20 11.1 °F 1.6 °F 29.98 in SW 7.0 mph 11.0 mph 65% 0.00 in
03:24 11.2 °F 1.4 °F 29.98 in SW 6.0 mph 13.0 mph 64% 0.00 in
03:30 11.1 °F 1.3 °F 29.98 in SW 6.0 mph 13.0 mph 64% 0.00 in
03:35 11.0 °F 1.2 °F 29.98 in SW 5.0 mph 10.0 mph 64% 0.00 in
03:39 10.9 °F 1.1 °F 29.98 in SW 4.0 mph 12.0 mph 64% 0.00 in
03:45 10.8 °F 1.0 °F 29.98 in SSW 4.0 mph 12.0 mph 64% 0.00 in
03:50 10.7 °F 0.9 °F 29.98 in SW 5.0 mph 10.0 mph 64% 0.00 in
03:55 10.5 °F 0.7 °F 29.98 in SW 5.0 mph 10.0 mph 64% 0.00 in
03:59 10.4 °F 0.6 °F 29.98 in SW 5.0 mph 10.0 mph 64% 0.00 in
04:05 10.3 °F 0.5 °F 29.98 in SW 5.0 mph 10.0 mph 64% 0.00 in
04:10 10.1 °F 0.3 °F 29.98 in SW 6.0 mph 10.0 mph 64% 0.00 in
04:14 9.9 °F 0.2 °F 29.98 in SW 7.0 mph 11.0 mph 64% 0.00 in
04:20 9.9 °F 0.2 °F 29.98 in SSW 7.0 mph 12.0 mph 64% 0.00 in
04:24 9.9 °F 0.2 °F 29.98 in SW 6.0 mph 12.0 mph 64% 0.00 in
04:30 9.6 °F -0.1 °F 29.98 in SW 7.0 mph 12.0 mph 64% 0.00 in
04:35 9.6 °F 0.2 °F 29.98 in SW 9.0 mph 12.0 mph 65% 0.00 in
04:39 9.4 °F 0.0 °F 29.98 in SW 7.0 mph 13.0 mph 65% 0.00 in
04:45 9.2 °F -0.2 °F 29.98 in SW 7.0 mph 13.0 mph 65% 0.00 in
04:50 9.2 °F -0.2 °F 29.98 in SSW 7.0 mph 13.0 mph 65% 0.00 in
04:55 9.3 °F -0.1 °F 29.98 in SSW 9.0 mph 14.0 mph 65% 0.00 in
05:00 9.3 °F -0.1 °F 29.99 in SSW 7.0 mph 16.0 mph 65% 0.00 in
05:05 9.2 °F -0.2 °F 29.99 in SSW 7.0 mph 16.0 mph 65% 0.00 in
05:09 9.2 °F -0.2 °F 29.99 in SSW 5.0 mph 15.0 mph 65% 0.00 in
05:15 8.9 °F -0.5 °F 29.98 in SSW 6.0 mph 14.0 mph 65% 0.00 in
05:20 8.6 °F -0.4 °F 29.98 in SSW 4.0 mph 12.0 mph 66% 0.00 in
05:24 8.7 °F -0.3 °F 29.99 in SSW 4.0 mph 9.0 mph 66% 0.00 in
05:30 8.7 °F 0.0 °F 29.98 in SSW 6.0 mph 11.0 mph 67% 0.00 in
05:35 8.8 °F 0.1 °F 29.99 in SSW 6.0 mph 11.0 mph 67% 0.00 in
05:40 8.8 °F 0.1 °F 29.99 in SSW 4.0 mph 11.0 mph 67% 0.00 in
05:44 8.6 °F -0.1 °F 29.99 in SSW 5.0 mph 8.0 mph 67% 0.00 in
05:50 8.6 °F -0.1 °F 29.99 in SSW 7.0 mph 11.0 mph 67% 0.00 in
05:55 8.4 °F -0.3 °F 29.99 in SW 5.0 mph 11.0 mph 67% 0.00 in
05:59 8.5 °F -0.2 °F 30.00 in SSW 6.0 mph 9.0 mph 67% 0.00 in
06:04 8.5 °F -0.2 °F 30.00 in SW 4.0 mph 12.0 mph 67% 0.00 in
06:10 8.5 °F 0.1 °F 30.00 in SSW 5.0 mph 12.0 mph 68% 0.00 in
06:15 8.6 °F -0.1 °F 30.00 in SSW 6.0 mph 11.0 mph 67% 0.00 in
06:20 8.5 °F -0.2 °F 30.00 in SW 4.0 mph 10.0 mph 67% 0.00 in
06:25 8.2 °F -0.5 °F 30.00 in SW 4.0 mph 10.0 mph 67% 0.00 in
06:30 7.9 °F -0.8 °F 30.00 in SW 4.0 mph 8.0 mph 67% 0.00 in
06:40 7.2 °F -1.1 °F 30.00 in SSW 4.0 mph 7.0 mph 68% 0.00 in
06:45 7.1 °F -1.2 °F 30.01 in SW 4.0 mph 8.0 mph 68% 0.00 in
06:50 6.8 °F -1.2 °F 30.01 in SW 3.0 mph 8.0 mph 69% 0.00 in
06:55 6.6 °F -1.4 °F 30.01 in SSW 4.0 mph 8.0 mph 69% 0.00 in
07:00 6.3 °F -1.7 °F 30.01 in SSW 4.0 mph 8.0 mph 69% 0.00 in
07:05 6.2 °F -1.5 °F 30.01 in SSW 4.0 mph 8.0 mph 70% 0.00 in
07:09 6.1 °F -1.6 °F 30.01 in SSW 4.0 mph 8.0 mph 70% 0.00 in
07:15 5.8 °F -2.2 °F 30.01 in SSW 3.0 mph 8.0 mph 69% 0.00 in
07:19 5.7 °F -2.0 °F 30.01 in SSW 4.0 mph 7.0 mph 70% 0.00 in
07:25 5.4 °F -2.3 °F 30.01 in SSW 4.0 mph 8.0 mph 70% 0.00 in
07:30 5.5 °F -2.2 °F 30.01 in SW 5.0 mph 8.0 mph 70% 0.00 in
07:35 5.5 °F -2.2 °F 30.01 in SSW 3.0 mph 8.0 mph 70% 0.00 in
07:40 5.5 °F -2.2 °F 30.02 in SSW 4.0 mph 8.0 mph 70% 0.00 in
07:45 5.6 °F -1.8 °F 30.02 in SSW 4.0 mph 7.0 mph 71% 0.00 in
07:50 5.7 °F -2.0 °F 30.02 in SSW 4.0 mph 7.0 mph 70% 0.00 in
07:55 6.4 °F -1.0 °F 30.02 in SSW 6.0 mph 8.0 mph 71% 0.00 in
08:00 6.7 °F -1.0 °F 30.02 in SSW 4.0 mph 10.0 mph 70% 0.00 in
08:04 7.1 °F -0.9 °F 30.02 in SSW 6.0 mph 10.0 mph 69% 0.00 in
08:10 7.6 °F -0.8 °F 30.03 in SSW 5.0 mph 11.0 mph 68% 0.00 in
08:14 7.9 °F -0.5 °F 30.03 in SW 5.0 mph 11.0 mph 68% 0.00 in
08:20 8.4 °F 0.0 °F 30.03 in SSW 6.0 mph 11.0 mph 68% 0.00 in
08:24 8.8 °F 0.1 °F 30.03 in SSW 5.0 mph 11.0 mph 67% 0.00 in
08:30 9.2 °F 0.5 °F 30.03 in SSW 6.0 mph 12.0 mph 67% 0.00 in
08:35 9.5 °F 0.4 °F 30.03 in SSW 7.0 mph 12.0 mph 66% 0.00 in
08:40 9.8 °F 0.7 °F 30.03 in SW 6.0 mph 12.0 mph 66% 0.00 in
08:45 9.9 °F 0.8 °F 30.03 in SSW 5.0 mph 12.0 mph 66% 0.00 in
08:50 10.1 °F 1.0 °F 30.03 in SW 8.0 mph 14.0 mph 66% 0.00 in
08:55 10.4 °F 1.3 °F 30.04 in SSW 5.0 mph 14.0 mph 66% 0.00 in
08:59 10.8 °F 1.7 °F 30.04 in SSW 6.0 mph 11.0 mph 66% 0.00 in
09:05 11.0 °F 1.5 °F 30.04 in SW 7.0 mph 13.0 mph 65% 0.00 in
09:09 11.2 °F 1.7 °F 30.04 in SSW 4.0 mph 13.0 mph 65% 0.00 in
09:15 11.4 °F 1.9 °F 30.04 in SW 7.0 mph 13.0 mph 65% 0.00 in
09:19 11.6 °F 2.1 °F 30.04 in SW 6.0 mph 13.0 mph 65% 0.00 in
09:25 11.9 °F 2.1 °F 30.04 in SW 7.0 mph 12.0 mph 64% 0.00 in
09:30 12.2 °F 2.3 °F 30.04 in SW 8.0 mph 13.0 mph 64% 0.00 in
09:35 12.6 °F 2.7 °F 30.04 in SSW 6.0 mph 13.0 mph 64% 0.00 in
09:40 12.9 °F 3.0 °F 30.04 in SW 5.0 mph 12.0 mph 64% 0.00 in
09:44 13.0 °F 2.8 °F 30.04 in SSW 6.0 mph 13.0 mph 63% 0.00 in
09:50 13.5 °F 2.9 °F 30.04 in SSW 6.0 mph 13.0 mph 62% 0.00 in
09:55 13.8 °F 2.8 °F 30.04 in SSW 7.0 mph 12.0 mph 61% 0.00 in
09:59 13.9 °F 2.9 °F 30.05 in SSW 5.0 mph 12.0 mph 61% 0.00 in
10:05 14.0 °F 2.7 °F 30.04 in SSW 7.0 mph 14.0 mph 60% 0.00 in
10:10 14.2 °F 3.2 °F 30.04 in SSW 8.0 mph 14.0 mph 61% 0.00 in
10:14 14.3 °F 2.9 °F 30.05 in SSW 5.0 mph 15.0 mph 60% 0.00 in
10:20 14.5 °F 3.1 °F 30.04 in SSW 7.0 mph 15.0 mph 60% 0.00 in
10:25 14.9 °F 3.2 °F 30.05 in SSW 6.0 mph 12.0 mph 59% 0.00 in
10:30 15.1 °F 3.0 °F 30.05 in SSW 7.0 mph 12.0 mph 58% 0.00 in
10:35 15.2 °F 3.1 °F 30.05 in SSW 6.0 mph 12.0 mph 58% 0.00 in
10:40 14.9 °F 3.2 °F 30.04 in SSW 8.0 mph 12.0 mph 59% 0.00 in
10:44 14.8 °F 3.1 °F 30.05 in SSW 6.0 mph 12.0 mph 59% 0.00 in
10:50 15.1 °F 3.3 °F 30.04 in SSW 7.0 mph 11.0 mph 59% 0.00 in
10:55 15.5 °F 3.7 °F 30.04 in SSW 6.0 mph 11.0 mph 59% 0.00 in
10:59 15.7 °F 3.9 °F 30.04 in SSW 5.0 mph 10.0 mph 59% 0.00 in
11:05 16.0 °F 4.2 °F 30.05 in SSW 6.0 mph 12.0 mph 59% 0.00 in
11:09 16.8 °F 4.9 °F 30.05 in SSW 5.0 mph 12.0 mph 59% 0.00 in
11:15 17.0 °F 4.4 °F 30.04 in SSW 7.0 mph 12.0 mph 57% 0.00 in
11:19 17.3 °F 5.0 °F 30.04 in SSW 6.0 mph 12.0 mph 58% 0.00 in
11:25 17.5 °F 4.9 °F 30.04 in SW 7.0 mph 11.0 mph 57% 0.00 in
11:30 17.9 °F 5.2 °F 30.04 in SSW 6.0 mph 11.0 mph 57% 0.00 in
11:35 18.1 °F 5.4 °F 30.04 in SW 5.0 mph 10.0 mph 57% 0.00 in
11:44 17.9 °F 5.2 °F 30.04 in SSW 5.0 mph 11.0 mph 57% 0.00 in
11:50 18.3 °F 5.6 °F 30.04 in SW 3.0 mph 9.0 mph 57% 0.00 in
11:55 18.5 °F 5.8 °F 30.04 in SSW 5.0 mph 9.0 mph 57% 0.00 in
12:00 18.1 °F 5.4 °F 30.03 in SW 5.0 mph 10.0 mph 57% 0.00 in
12:05 17.7 °F 5.4 °F 30.03 in SSW 5.0 mph 12.0 mph 58% 0.00 in
12:09 17.8 °F 5.1 °F 30.03 in SSW 7.0 mph 12.0 mph 57% 0.00 in
12:15 17.5 °F 4.9 °F 30.03 in SSW 6.0 mph 12.0 mph 57% 0.00 in
12:19 17.6 °F 4.9 °F 30.03 in SSW 7.0 mph 12.0 mph 57% 0.00 in
12:25 17.4 °F 4.8 °F 30.03 in SSW 8.0 mph 14.0 mph 57% 0.00 in
12:30 17.5 °F 4.9 °F 30.03 in SSW 6.0 mph 14.0 mph 57% 0.00 in
12:35 17.7 °F 5.0 °F 30.03 in SSW 7.0 mph 13.0 mph 57% 0.00 in
12:44 18.1 °F 5.4 °F 30.02 in SSW 6.0 mph 13.0 mph 57% 0.00 in
12:50 18.7 °F 5.6 °F 30.02 in SW 6.0 mph 12.0 mph 56% 0.00 in
12:55 18.9 °F 5.8 °F 30.02 in SSW 7.0 mph 12.0 mph 56% 0.00 in
12:59 18.7 °F 5.6 °F 30.02 in SW 6.0 mph 12.0 mph 56% 0.00 in
13:05 18.8 °F 5.7 °F 30.02 in South 7.0 mph 15.0 mph 56% 0.00 in
13:09 19.3 °F 6.5 °F 30.02 in SW 3.0 mph 15.0 mph 57% 0.00 in
13:14 19.4 °F 6.3 °F 30.02 in WSW 4.0 mph 9.0 mph 56% 0.00 in
13:20 19.7 °F 6.5 °F 30.02 in SSW 3.0 mph 9.0 mph 56% 0.00 in
13:24 20.0 °F 6.4 °F 30.02 in WSW 3.0 mph 9.0 mph 55% 0.00 in
13:30 19.9 °F 6.3 °F 30.02 in SW 6.0 mph 10.0 mph 55% 0.00 in
13:34 19.9 °F 6.3 °F 30.02 in SW 5.0 mph 10.0 mph 55% 0.00 in
13:39 19.7 °F 6.1 °F 30.02 in SSW 5.0 mph 12.0 mph 55% 0.00 in
13:45 19.7 °F 6.1 °F 30.02 in SSW 7.0 mph 12.0 mph 55% 0.00 in
13:49 19.7 °F 6.1 °F 30.02 in SSW 5.0 mph 10.0 mph 55% 0.00 in
13:55 19.7 °F 6.1 °F 30.02 in SSW 7.0 mph 10.0 mph 55% 0.00 in
14:00 19.7 °F 6.1 °F 30.02 in SSW 4.0 mph 10.0 mph 55% 0.00 in
14:05 20.0 °F 6.4 °F 30.02 in SSW 4.0 mph 10.0 mph 55% 0.00 in
14:14 19.9 °F 5.9 °F 30.02 in SSW 6.0 mph 10.0 mph 54% 0.00 in
14:19 19.7 °F 6.1 °F 30.02 in South 3.0 mph 10.0 mph 55% 0.00 in
14:24 20.0 °F 6.4 °F 30.02 in SSW 4.0 mph 10.0 mph 55% 0.00 in
14:30 20.6 °F 6.2 °F 30.01 in SSW 6.0 mph 10.0 mph 53% 0.00 in
14:35 20.6 °F 6.6 °F 30.02 in SW 3.0 mph 11.0 mph 54% 0.00 in
14:39 20.3 °F 5.9 °F 30.01 in SSW 6.0 mph 12.0 mph 53% 0.00 in
14:44 20.5 °F 6.5 °F 30.01 in SSW 5.0 mph 12.0 mph 54% 0.00 in
14:50 20.7 °F 6.7 °F 30.01 in SSW 4.0 mph 8.0 mph 54% 0.00 in
14:55 20.6 °F 6.2 °F 30.01 in SSW 4.0 mph 8.0 mph 53% 0.00 in
14:59 20.8 °F 6.4 °F 30.01 in SSW 4.0 mph 8.0 mph 53% 0.00 in
15:05 21.1 °F 6.2 °F 30.01 in SSW 4.0 mph 9.0 mph 52% 0.00 in
15:09 21.3 °F 6.0 °F 30.01 in SSW 2.0 mph 9.0 mph 51% 0.00 in
15:15 21.1 °F 5.8 °F 30.01 in SSW 4.0 mph 8.0 mph 51% 0.00 in
15:19 21.2 °F 5.9 °F 30.01 in SSW 4.0 mph 8.0 mph 51% 0.00 in
15:24 21.1 °F 5.8 °F 30.01 in South 3.0 mph 7.0 mph 51% 0.00 in
15:30 21.1 °F 6.2 °F 30.01 in SSW 2.0 mph 8.0 mph 52% 0.00 in
15:40 21.0 °F 5.7 °F 30.01 in SSW 1.0 mph 7.0 mph 51% 0.00 in
15:44 21.2 °F 5.4 °F 30.01 in SSW 3.0 mph 6.0 mph 50% 0.00 in
15:50 21.1 °F 5.4 °F 30.01 in SSW 4.0 mph 6.0 mph 50% 0.00 in
15:55 20.8 °F 5.1 °F 30.01 in SW 3.0 mph 6.0 mph 50% 0.00 in
15:59 20.8 °F 5.1 °F 30.00 in SSW 1.0 mph 6.0 mph 50% 0.00 in
16:04 20.9 °F 5.2 °F 30.00 in SSW 2.0 mph 6.0 mph 50% 0.00 in
16:09 20.6 °F 4.9 °F 30.00 in SW 4.0 mph 5.0 mph 50% 0.00 in
16:14 20.3 °F 4.6 °F 30.00 in South 3.0 mph 5.0 mph 50% 0.00 in
16:20 20.1 °F 4.4 °F 30.00 in SSW 1.0 mph 5.0 mph 50% 0.00 in
16:24 20.1 °F 4.4 °F 30.00 in SSW 2.0 mph 5.0 mph 50% 0.00 in
16:30 19.7 °F 4.1 °F 30.00 in SSW 3.0 mph 5.0 mph 50% 0.00 in
16:35 19.6 °F 4.0 °F 30.00 in SSW 2.0 mph 5.0 mph 50% 0.00 in
16:40 19.3 °F 3.7 °F 30.00 in SW 2.0 mph 5.0 mph 50% 0.00 in
16:44 19.0 °F 3.8 °F 30.00 in SSW 1.0 mph 5.0 mph 51% 0.00 in
16:49 18.8 °F 3.6 °F 30.00 in SSW 3.0 mph 5.0 mph 51% 0.00 in
16:55 18.2 °F 3.1 °F 30.00 in SSW 1.0 mph 5.0 mph 51% 0.00 in
17:00 17.6 °F 3.4 °F 30.00 in SSW 2.0 mph 5.0 mph 53% 0.00 in
17:04 16.9 °F 2.7 °F 30.00 in SSW 1.0 mph 4.0 mph 53% 0.00 in
17:10 15.9 °F 3.3 °F 30.00 in Calm   4.0 mph 57% 0.00 in
17:14 15.1 °F 2.6 °F 30.00 in Calm   4.0 mph 57% 0.00 in
17:20 14.8 °F 2.7 °F 30.00 in Calm   3.0 mph 58% 0.00 in
17:24 14.5 °F 2.4 °F 29.99 in Calm   3.0 mph 58% 0.00 in
17:30 14.3 °F 4.0 °F 30.00 in Calm     63% 0.00 in
17:35 13.6 °F 2.6 °F 30.00 in Calm     61% 0.00 in
17:40 13.0 °F 2.1 °F 30.00 in Calm     61% 0.00 in
17:44 12.9 °F 3.7 °F 30.00 in Calm     66% 0.00 in
17:50 12.7 °F 2.1 °F 30.00 in Calm   4.0 mph 62% 0.00 in
17:55 12.8 °F 1.9 °F 29.99 in Calm   4.0 mph 61% 0.00 in
17:59 12.8 °F 2.2 °F 30.00 in Calm   3.0 mph 62% 0.00 in
18:04 12.7 °F 2.1 °F 30.00 in Calm   3.0 mph 62% 0.00 in
18:09 12.4 °F 1.9 °F 29.99 in Calm   3.0 mph 62% 0.00 in
18:14 12.3 °F 2.4 °F 29.99 in Calm     64% 0.00 in
18:19 12.3 °F 2.8 °F 30.00 in Calm     65% 0.00 in
18:24 12.3 °F 3.1 °F 29.99 in Calm     66% 0.00 in
18:30 11.9 °F 1.4 °F 29.99 in Calm     62% 0.00 in
18:35 11.7 °F 2.5 °F 30.00 in Calm     66% 0.00 in
18:39 11.6 °F 2.4 °F 30.00 in Calm     66% 0.00 in
18:45 11.5 °F 2.3 °F 29.99 in Calm     66% 0.00 in
18:49 11.6 °F 2.8 °F 29.99 in Calm   2.0 mph 67% 0.00 in
18:55 11.8 °F 2.6 °F 29.99 in Calm   2.0 mph 66% 0.00 in
19:00 11.6 °F 2.4 °F 29.99 in Calm   2.0 mph 66% 0.00 in
19:04 11.7 °F 2.9 °F 29.99 in Calm   2.0 mph 67% 0.00 in
19:10 11.6 °F 2.4 °F 29.99 in Calm     66% 0.00 in
19:15 11.8 °F 3.3 °F 29.99 in Calm     68% 0.00 in
19:20 11.7 °F 3.2 °F 29.99 in Calm     68% 0.00 in
19:24 11.7 °F 3.2 °F 29.99 in Calm     68% 0.00 in
19:30 11.3 °F 2.1 °F 29.98 in Calm     66% 0.00 in
19:35 11.2 °F 1.7 °F 29.98 in Calm   2.0 mph 65% 0.00 in
19:39 11.0 °F 1.5 °F 29.98 in SSW 1.0 mph 2.0 mph 65% 0.00 in
19:45 11.5 °F 1.7 °F 29.98 in SSW 1.0 mph 4.0 mph 64% 0.00 in
19:49 11.8 °F 2.0 °F 29.98 in SSW 1.0 mph 4.0 mph 64% 0.00 in
19:55 12.5 °F 2.3 °F 29.98 in SSW 2.0 mph 4.0 mph 63% 0.00 in
19:59 13.3 °F 2.7 °F 29.99 in SSW 1.0 mph 5.0 mph 62% 0.00 in
20:04 13.6 °F 2.6 °F 29.99 in SSW 1.0 mph 5.0 mph 61% 0.00 in
20:09 14.0 °F 2.7 °F 29.99 in SSW 2.0 mph 5.0 mph 60% 0.00 in
20:14 14.5 °F 3.1 °F 29.99 in SSW 2.0 mph 6.0 mph 60% 0.00 in
20:19 14.7 °F 3.0 °F 29.99 in SSW 2.0 mph 6.0 mph 59% 0.00 in
20:24 14.8 °F 3.1 °F 29.98 in SSW 2.0 mph 6.0 mph 59% 0.00 in
20:30 14.9 °F 3.2 °F 29.98 in SSW 1.0 mph 6.0 mph 59% 0.00 in
20:35 14.7 °F 3.3 °F 29.99 in SSW 2.0 mph 6.0 mph 60% 0.00 in
20:39 14.6 °F 3.2 °F 29.99 in SSW 2.0 mph 6.0 mph 60% 0.00 in
20:44 14.7 °F 3.3 °F 29.99 in SSW 1.0 mph 6.0 mph 60% 0.00 in
20:49 14.6 °F 3.6 °F 29.98 in SSW 1.0 mph 7.0 mph 61% 0.00 in
20:55 14.5 °F 3.5 °F 29.98 in SW 2.0 mph 8.0 mph 61% 0.00 in
21:04 14.8 °F 4.1 °F 29.99 in SSW 4.0 mph 8.0 mph 62% 0.00 in
21:09 15.0 °F 4.0 °F 29.99 in SSW 4.0 mph 8.0 mph 61% 0.00 in
21:15 15.1 °F 4.1 °F 29.98 in SSW 4.0 mph 9.0 mph 61% 0.00 in
21:19 15.5 °F 4.4 °F 29.99 in SSW 3.0 mph 9.0 mph 61% 0.00 in
21:25 15.4 °F 4.3 °F 29.98 in SSW 3.0 mph 7.0 mph 61% 0.00 in
21:30 15.6 °F 4.9 °F 29.98 in SSW 2.0 mph 8.0 mph 62% 0.00 in
21:34 15.8 °F 5.1 °F 29.98 in SSW 3.0 mph 8.0 mph 62% 0.00 in
21:40 15.9 °F 5.2 °F 29.98 in SSW 3.0 mph 8.0 mph 62% 0.00 in
21:44 15.9 °F 5.2 °F 29.98 in SSW 4.0 mph 8.0 mph 62% 0.00 in
21:50 16.0 °F 5.3 °F 29.97 in SSW 2.0 mph 8.0 mph 62% 0.00 in
21:55 15.9 °F 5.2 °F 29.97 in SSW 3.0 mph 7.0 mph 62% 0.00 in
21:59 15.6 °F 4.9 °F 29.97 in SSW 3.0 mph 7.0 mph 62% 0.00 in
22:04 15.6 °F 5.2 °F 29.97 in SSW 4.0 mph 7.0 mph 63% 0.00 in
22:10 15.5 °F 5.1 °F 29.97 in SSW 5.0 mph 8.0 mph 63% 0.00 in
22:14 15.5 °F 5.1 °F 29.97 in SSW 2.0 mph 8.0 mph 63% 0.00 in
22:20 15.5 °F 5.1 °F 29.97 in SSW 2.0 mph 5.0 mph 63% 0.00 in
22:24 15.4 °F 5.1 °F 29.97 in SSW 2.0 mph 5.0 mph 63% 0.00 in
22:30 15.3 °F 5.0 °F 29.96 in SSW 3.0 mph 5.0 mph 63% 0.00 in
22:35 15.3 °F 5.0 °F 29.96 in South 1.0 mph 5.0 mph 63% 0.00 in
22:40 15.3 °F 5.0 °F 29.96 in SSW 2.0 mph 5.0 mph 63% 0.00 in
22:44 15.3 °F 5.0 °F 29.95 in Calm   5.0 mph 63% 0.00 in
22:50 15.3 °F 5.0 °F 29.95 in SSW 2.0 mph 5.0 mph 63% 0.00 in
22:55 15.5 °F 5.1 °F 29.95 in SSW 2.0 mph 5.0 mph 63% 0.00 in
22:59 15.6 °F 5.2 °F 29.94 in SSW 1.0 mph 5.0 mph 63% 0.00 in
23:05 15.4 °F 5.1 °F 29.94 in Calm   5.0 mph 63% 0.00 in
23:09 15.4 °F 5.1 °F 29.93 in Calm   5.0 mph 63% 0.00 in
23:15 15.1 °F 5.8 °F 29.93 in Calm   5.0 mph 66% 0.00 in
23:19 15.0 °F 5.4 °F 29.93 in South 1.0 mph 4.0 mph 65% 0.00 in
23:24 15.2 °F 5.5 °F 29.93 in SSW 1.0 mph 5.0 mph 65% 0.00 in
23:29 15.8 °F 5.8 °F 29.92 in SSW 2.0 mph 6.0 mph 64% 0.00 in
23:34 16.4 °F 6.3 °F 29.92 in South 3.0 mph 6.0 mph 64% 0.00 in
23:39 16.9 °F 6.5 °F 29.92 in SSW 2.0 mph 7.0 mph 63% 0.00 in
23:44 17.0 °F 6.2 °F 29.92 in SSW 1.0 mph 7.0 mph 62% 0.00 in
23:49 17.0 °F 6.2 °F 29.91 in SSW 2.0 mph 6.0 mph 62% 0.00 in
23:55 16.8 °F 6.0 °F 29.91 in SSW 2.0 mph 6.0 mph 62% 0.00 in
23:59 16.8 °F 6.4 °F 29.91 in SSW 2.0 mph 6.0 mph 63% 0.00 in
Westford Weather
Compliments of Weather Underground

 
 
Current Radar Loop:

Copyright © WestfordWeather.net 2007-2014. All rights reserved.